Weather History for Tyler, TX

Change the Weather History Date:

Sunday, November 30, 2014

  Actual Average Record
Temperature  
Mean Temperature 72 °F 51 °F  
Max Temperature 79 °F 60 °F 80 °F (1950)
Min Temperature 65 °F 42 °F 15 °F (1976)
Degree Days  
Heating Degree Days 0 14  
Month to date heating degree days 367 295  
Since 1 July heating degree days 381 374  
Cooling Degree Days 7 0  
Month to date cooling degree days 11 18  
Year to date cooling degree days 2605 2411  
Growing Degree Days 21 (Base 50)    
Moisture  
Dew Point 60 °F    
Average Humidity 68    
Maximum Humidity 87    
Minimum Humidity 48    
Precipitation  
Precipitation 0.00 in 0.14 in 2.15 in (1991)
Month to date precipitation 3.93 4.10  
Year to date precipitation 32.80 41.55  
Snow  
Snow 0.00 in - - ()
Month to date snowfall T  
Since 1 July snowfall T  
Since 1 September snowfall T  
Snow Depth 0.00 in    
Sea Level Pressure  
Sea Level Pressure 30.01 in    
Wind  
Wind Speed 14 mph (South)    
Max Wind Speed 24 mph    
Max Gust Speed 31 mph    
Visibility 10 miles    
Events      
T = Trace of Precipitation, MM = Missing Value Source: NWS Daily Summary

Daily Weather History Graph

Daily Weather History Graph

Search for Another Location

Airport:

Trip Planner

Search our weather history database for the weather conditions in past years. The results will help you decide how hot, cold, wet, or windy it might be!

Date:

Astronomy

Nov. 30, 2014 Rise Set
Actual Time 7:04 AM CST 5:16 PM CST
Civil Twilight 6:37 AM CST 5:42 PM CST
Nautical Twilight 6:07 AM CST 6:13 PM CST
Astronomical Twilight 5:37 AM CST 6:42 PM CST
Moon 1:27 PM CST (11/30) 12:56 AM CST (11/30)
Length of Visible Light 11h 05m
Length of Day
10h 12m
Waxing Gibbous, 65% of the Moon is Illuminated
Nov 30
Waxing Gibbous
Dec 6
Full
Dec 14
Last Quarter
Dec 21
New
Dec 28
First Quarter

Hourly Weather History & Observations

Time (CST) Temp. Dew Point Humidity Pressure Visibility Wind Dir Wind Speed Gust Speed Precip Events Conditions
12:53 AM 66.0 °F 59.0 °F 78% 29.94 in 10.0 mi South 12.7 mph 24.2 mph N/A   Partly Cloudy
1:53 AM 64.9 °F 59.0 °F 81% 29.94 in 10.0 mi South 16.1 mph 23.0 mph N/A   Partly Cloudy
2:18 AM 64.9 °F 60.1 °F 84% 29.96 in 10.0 mi South 15.0 mph 25.3 mph N/A   Mostly Cloudy
2:53 AM 66.0 °F 60.1 °F 81% 29.95 in 10.0 mi South 13.8 mph - N/A   Overcast
3:53 AM 66.0 °F 60.1 °F 81% 29.96 in 10.0 mi South 12.7 mph - N/A   Overcast
4:53 AM 64.9 °F 60.1 °F 84% 29.96 in 10.0 mi South 10.4 mph - N/A   Overcast
5:30 AM 64.9 °F 60.1 °F 84% 29.98 in 10.0 mi South 13.8 mph - N/A   Overcast
5:41 AM 64.9 °F 60.1 °F 84% 29.98 in 10.0 mi South 12.7 mph - N/A   Overcast
5:53 AM 64.9 °F 60.1 °F 84% 29.97 in 10.0 mi South 12.7 mph - N/A   Overcast
6:53 AM 64.9 °F 60.1 °F 84% 29.99 in 10.0 mi South 13.8 mph - N/A   Overcast
7:53 AM 66.9 °F 60.1 °F 79% 30.01 in 10.0 mi South 17.3 mph - N/A   Overcast
8:53 AM 68.0 °F 61.0 °F 78% 30.03 in 10.0 mi South 16.1 mph - N/A   Overcast
9:53 AM 70.0 °F 61.0 °F 73% 30.05 in 10.0 mi SSW 16.1 mph - N/A   Overcast
10:53 AM 73.0 °F 61.0 °F 66% 30.04 in 10.0 mi SSW 17.3 mph 25.3 mph N/A   Overcast
11:53 AM 73.9 °F 60.1 °F 62% 30.02 in 10.0 mi SSW 15.0 mph 27.6 mph N/A   Overcast
12:53 PM 75.9 °F 59.0 °F 56% 29.99 in 10.0 mi SSW 17.3 mph - N/A   Overcast
1:53 PM 77.0 °F 57.9 °F 52% 29.99 in 10.0 mi SSW 18.4 mph 25.3 mph N/A   Mostly Cloudy
2:53 PM 78.1 °F 57.9 °F 50% 29.98 in 10.0 mi SSW 20.7 mph 26.5 mph N/A   Partly Cloudy
3:53 PM 75.9 °F 57.9 °F 54% 29.99 in 10.0 mi SSW 19.6 mph - N/A   Partly Cloudy
4:53 PM 73.9 °F 57.9 °F 57% 30.00 in 10.0 mi South 11.5 mph - N/A   Clear
5:53 PM 71.1 °F 57.9 °F 63% 30.01 in 10.0 mi South 9.2 mph - N/A   Clear
6:53 PM 69.1 °F 59.0 °F 70% 30.03 in 10.0 mi South 9.2 mph - N/A   Clear
7:53 PM 68.0 °F 59.0 °F 73% 30.05 in 10.0 mi South 11.5 mph - N/A   Clear
8:53 PM 66.9 °F 60.1 °F 79% 30.07 in 10.0 mi South 10.4 mph - N/A   Clear
9:53 PM 66.0 °F 60.1 °F 81% 30.08 in 10.0 mi South 11.5 mph - N/A   Clear
10:53 PM 66.0 °F 61.0 °F 84% 30.11 in 10.0 mi South 11.5 mph - N/A   Clear
11:53 PM 66.0 °F 61.0 °F 84% 30.12 in 10.0 mi South 13.8 mph - N/A   Scattered Clouds